W5HRH Weather Reports


time (UTC)temp
F
wind
direction
speed
knots
gust
knots
rain 1hr
in
rain 24hr
in
rain mn
in
humidity
%
barometer
mb
20260502182553 72 31 6.1 12.2 0.00 1.54 0.00 54 1022.0
20260502182052 72 55 4.3 12.2 0.00 1.54 0.00 54 1021.9
20260502181554 72 78 3.5 10.4 0.00 1.54 0.00 54 1022.1
20260502181052 72 46 3.5 13.0 0.00 1.54 0.00 54 1022.1
20260502180551 72 42 6.1 13.0 0.00 1.54 0.00 54 1022.1
20260502164033 69 342 4.3 10.4 0.00 2.12 0.00 63 1022.4
20260502163532 68 360 5.2 12.2 0.00 2.12 0.00 62 1022.4
20260502163040 68 355 3.5 10.4 0.00 2.12 0.00 63 1022.5
20260502162531 68 53 2.6 11.3 0.00 2.12 0.00 64 1022.5
20260502162031 67 342 4.3 11.3 0.00 2.12 0.00 64 1022.5
20260502161543 67 27 4.3 11.3 0.00 2.12 0.00 66 1022.5
20260502161035 67 71 5.2 11.3 0.00 2.12 0.00 65 1022.6
20260502160526 67 329 5.2 10.4 0.00 2.12 0.00 66 1022.5
20260502160136 67 16 4.3 11.3 0.00 2.12 0.00 68 1022.5
20260502152017 65 21 3.5 11.3 0.00 2.13 0.00 74 1022.2
20260502151516 64 28 3.5 12.2 0.00 2.13 0.00 74 1022.1
20260502151015 63 150 2.6 12.2 0.00 2.13 0.00 75 1022.2
20260502150514 63 38 4.3 8.7 0.00 2.13 0.00 75 1022.3
20260502130548 55 332 3.5 8.7 0.00 2.34 0.00 90 1020.9
20260502130106 55 21 2.6 8.7 0.00 2.34 0.00 90 1020.8
20260502123544 54 320 1.7 7.0 0.00 2.35 0.00 91 1020.6
20260502123112 54 341 2.6 7.0 0.00 2.35 0.00 91 1020.4
20260502122544 54 343 0.9 7.0 0.00 2.35 0.00 91 1020.4
20260502122043 53 327 1.7 5.2 0.00 2.35 0.00 92 1020.4
20260502121544 53 19 1.7 7.0 0.00 2.35 0.00 91 1020.3
20260502121042 53 324 1.7 7.0 0.00 2.35 0.00 91 1020.4
20260502120541 53 348 0.9 4.3 0.00 2.35 0.00 91 1020.3
20260502115540 53 58 0.9 5.2 0.00 2.36 0.00 91 1020.3
20260502115040 53 43 1.7 5.2 0.00 2.36 0.00 91 1020.1
20260502114542 53 17 1.7 4.3 0.00 2.36 0.00 91 1020.1
20260502114039 53 355 0.9 2.6 0.00 2.36 0.00 91 1020.0
20260502113540 53 32 0.9 7.0 0.00 2.36 0.00 91 1020.1
20260502113038 53 11 1.7 7.0 0.00 2.36 0.00 91 1020.0
20260502112538 53 5 1.7 7.0 0.00 2.36 0.00 91 1019.9
20260502112036 53 26 2.6 7.0 0.00 2.36 0.00 91 1019.9
20260502111536 53 355 1.7 7.8 0.00 2.36 0.00 91 1019.9
20260502111039 53 329 0.9 7.8 0.00 2.36 0.00 91 1019.7
20260502110534 53 334 2.6 7.0 0.00 2.36 0.00 91 1019.7
20260502110045 53 355 1.7 4.3 0.00 2.36 0.00 90 1019.7
20260502105533 54 24 0.9 3.5 0.00 2.45 0.00 90 1019.6
20260502105032 54 297 1.7 4.3 0.00 2.45 0.00 90 1019.6
20260502104531 54 331 1.7 7.0 0.00 2.45 0.00 90 1019.5
20260502104031 54 45 1.7 7.0 0.00 2.45 0.00 90 1019.4
20260502103530 54 38 0.9 7.0 0.00 2.45 0.00 90 1019.5
20260502103032 54 19 1.7 7.0 0.00 2.45 0.00 90 1019.2
20260502102529 54 327 1.7 7.0 0.00 2.45 0.00 90 1019.2
20260502102035 54 355 2.6 7.0 0.00 2.45 0.00 90 1019.2
20260502101527 54 42 1.7 5.2 0.00 2.45 0.00 90 1019.2
20260502101027 54 355 0.9 4.3 0.00 2.45 0.00 89 1019.1
20260502100525 54 5 1.7 5.2 0.00 2.45 0.00 89 1019.0
20260502100126 54 40 1.7 5.2 0.00 2.45 0.00 89 1018.9
20260502091520 55 53 0.9 3.5 0.00 2.87 0.00 88 1018.1
20260502091020 55 64 0.0 3.5 0.00 2.87 0.00 88 1018.0
20260502090518 55 45 0.9 3.5 0.00 2.87 0.00 87 1018.0
20260502071511 55 46 1.7 5.2 0.00 3.02 0.00 91 1017.9
20260502071011 55 59 0.9 7.0 0.00 3.02 0.00 91 1017.9
20260502070510 55 69 0.9 7.0 0.00 3.02 0.00 91 1017.7
20260502070010 55 34 1.7 5.2 0.00 3.05 0.00 91 1017.9
20260502065510 55 49 1.7 8.7 0.00 3.05 0.00 91 1017.9
20260502065012 55 35 2.6 9.6 0.00 3.05 0.00 91 1017.9
20260502064508 55 16 4.3 9.6 0.00 3.05 0.00 91 1017.9
20260502064007 55 48 2.6 7.8 0.00 3.05 0.00 91 1017.8
20260502063507 55 51 4.3 11.3 0.00 3.05 0.00 91 1017.7
20260502063007 55 37 3.5 11.3 0.00 3.05 0.00 92 1017.5
20260502062506 56 50 3.5 9.6 0.00 3.05 0.00 92 1017.6
20260502062006 56 30 2.6 10.4 0.00 3.05 0.00 92 1017.4
20260502061507 56 20 5.2 10.4 0.00 3.05 0.00 92 1017.5
20260502061004 56 5 2.6 8.7 0.00 3.05 0.00 92 1017.6
20260502060503 56 26 2.6 13.0 0.00 3.05 0.00 92 1017.4
20260502060003 56 49 1.7 13.0 0.00 3.21 0.00 92 1017.4
20260502055503 56 49 3.5 8.7 0.00 3.21 0.00 93 1017.4
20260502055002 56 30 3.5 7.8 0.00 3.21 0.00 93 1017.4
20260502054503 56 45 1.7 8.7 0.00 3.21 0.00 93 1017.5
20260502054001 56 25 4.3 11.3 0.00 3.21 0.00 93 1017.4
20260502053503 56 61 4.3 8.7 0.00 3.21 0.00 93 1017.3
20260502053100 56 64 2.6 9.6 0.00 3.21 0.00 94 1017.4
20260502052600 56 59 3.5 9.6 0.00 3.21 0.00 94 1017.5
20260502052059 56 43 3.5 8.7 0.00 3.21 0.00 94 1017.5
20260502051602 56 315 2.6 8.7 0.00 3.21 0.00 94 1017.3
20260502051100 56 62 2.6 10.4 0.00 3.21 0.00 94 1017.2
20260502050558 56 44 2.6 11.3 0.00 3.21 0.00 95 1017.3
20260502050100 56 27 2.6 11.3 0.00 3.21 0.00 95 1017.3
20260502045556 56 336 1.7 6.1 0.00 3.23 3.21 95 1017.3
20260502045056 56 39 1.7 8.7 0.00 3.23 3.21 95 1017.2
20260502044555 56 55 1.7 7.8 0.00 3.23 3.21 95 1017.3
20260502044055 56 17 1.7 7.0 0.00 3.23 3.21 95 1017.4
20260502043555 56 82 1.7 9.6 0.00 3.23 3.21 95 1017.4
20260502043105 56 360 2.6 9.6 0.00 3.23 3.21 95 1017.6
20260502042554 56 43 2.6 8.7 0.00 3.23 3.21 95 1017.5
20260502042054 56 46 3.5 10.4 0.00 3.23 3.21 95 1017.4
20260502041556 56 54 3.5 10.4 0.00 3.23 3.21 95 1017.3
20260502041054 56 63 4.3 10.4 0.00 3.23 3.21 95 1017.3
20260502040552 56 38 2.6 12.2 0.00 3.23 3.21 95 1017.3
20260502040101 56 48 3.5 12.2 0.01 3.23 3.21 95 1017.4
20260502035551 56 65 3.5 10.4 0.01 3.23 3.21 95 1017.4
20260502035050 56 349 3.5 12.2 0.01 3.23 3.21 95 1017.5
20260502034553 56 355 2.6 12.2 0.01 3.23 3.21 95 1017.4
20260502034049 56 295 4.3 12.2 0.01 3.23 3.21 95 1017.1
20260502033547 56 55 2.6 7.8 0.01 3.23 3.21 96 1017.0
20260502033048 56 19 2.6 8.7 0.01 3.23 3.21 96 1016.9
20260502032546 56 355 2.6 8.7 0.01 3.23 3.21 96 1016.9
20260502032046 56 27 2.6 7.8 0.01 3.23 3.21 96 1016.8
20260502031546 56 19 2.6 10.4 0.01 3.23 3.21 96 1016.9
20260502031045 56 355 4.3 12.2 0.02 3.23 3.21 96 1016.7
20260502030542 56 355 5.2 12.2 0.02 3.23 3.21 96 1016.2
20260502030042 56 17 3.5 12.2 0.02 3.22 3.20 96 1016.0
20260502025543 56 44 3.5 12.2 0.02 3.22 3.20 96 1015.7
20260502025041 56 344 3.5 11.3 0.03 3.22 3.20 96 1015.9
20260502024550 56 25 3.5 9.6 0.03 3.22 3.20 95 1015.5
20260502024039 56 29 3.5 12.2 0.03 3.22 3.20 95 1015.8
20260502023539 56 49 5.2 12.2 0.04 3.22 3.20 95 1015.8
20260502023037 57 360 3.5 13.9 0.04 3.22 3.20 95 1015.7
20260502022535 57 55 5.2 11.3 0.04 3.22 3.20 95 1015.4
20260502022038 57 355 5.2 11.3 0.04 3.22 3.20 96 1015.4
20260502021535 57 355 4.3 10.4 0.05 3.22 3.20 96 1015.6
20260502021033 57 13 3.5 10.4 0.05 3.21 3.19 96 1015.8
20260502020635 57 28 2.6 10.4 0.07 3.21 3.19 95 1015.6
20260502020030 58 33 3.5 8.7 0.08 3.20 3.18 96 1015.0
20260502015529 58 19 2.6 13.9 0.08 3.20 3.18 96 1015.2
20260502015028 58 360 6.1 14.8 0.07 3.19 3.17 96 1015.2
20260502014532 58 333 7.0 14.8 0.07 3.19 3.17 96 1015.2
20260502014026 58 346 4.3 10.4 0.08 3.19 3.17 96 1014.9
20260502013626 58 65 5.2 10.4 0.07 3.18 3.16 96 1014.7
20260502013025 58 355 3.5 7.8 0.08 3.18 3.16 96 1014.6
20260502012524 58 329 1.7 9.6 0.08 3.18 3.16 96 1014.5
20260502012026 58 342 2.6 9.6 0.08 3.17 3.15 96 1014.4
20260502011523 58 5 3.5 9.6 0.09 3.17 3.15 96 1014.2
20260502011024 58 24 4.3 9.6 0.09 3.16 3.14 96 1014.3
20260502010522 58 360 3.5 9.6 0.08 3.14 3.12 96 1014.5
20260502010023 58 342 2.6 11.3 0.08 3.12 3.10 96 1014.9
20260502005520 58 310 4.3 11.3 0.09 3.12 3.10 96 1014.9
20260502005019 58 339 3.5 8.7 0.10 3.12 3.10 96 1014.3
20260502004540 58 345 3.5 11.3 0.11 3.12 3.10 96 1013.9
20260502004016 58 20 5.2 11.3 0.10 3.11 3.09 96 1013.6
20260502003614 59 49 2.6 8.7 0.10 3.11 3.09 96 1013.1
20260502003014 59 23 2.6 8.7 0.10 3.10 3.08 96 1013.3
20260502002513 59 20 3.5 7.8 0.11 3.10 3.08 96 1013.5
20260502002015 59 25 2.6 6.1 0.10 3.09 3.07 96 1013.6
20260502001516 59 15 2.6 9.6 0.12 3.08 3.06 96 1013.6
20260502001012 59 327 2.6 7.8 0.12 3.07 3.05 96 1013.9
20260502000511 59 5 2.6 10.4 0.15 3.06 3.04 96 1013.2
20260502000010 59 63 4.3 10.4 0.15 3.04 3.02 96 1013.3
20260501235509 59 343 3.5 9.6 0.15 3.03 3.01 96 1014.1
20260501235009 59 338 2.6 9.6 0.14 3.02 3.00 96 1014.4
20260501234508 59 40 1.7 9.6 0.13 3.01 2.99 96 1014.0
20260501234011 59 300 3.5 9.6 0.13 3.01 2.99 96 1013.3
20260501233508 59 59 3.5 13.9 0.13 3.01 2.99 96 1011.9
20260501233007 59 59 4.3 13.9 0.12 3.00 2.98 96 1012.4
20260501232508 59 36 2.6 8.7 0.11 2.99 2.97 96 1012.6
20260501232009 59 30 1.7 11.3 0.10 2.98 2.96 96 1012.6
20260501231514 59 51 5.2 11.3 0.08 2.96 2.94 96 1012.7
20260501231005 60 348 4.3 11.3 0.06 2.94 2.92 96 1012.8
20260501230508 60 16 3.5 10.4 0.03 2.91 2.89 96 1013.2
20260501230003 60 19 1.7 6.1 0.02 2.89 2.87 96 1013.0
20260501225503 60 53 2.6 7.0 0.01 2.88 2.86 96 1012.9
20260501225002 60 96 2.6 11.3 0.01 2.88 2.86 96 1012.4
20260501224502 60 98 3.5 11.3 0.01 2.88 2.86 96 1012.2
20260501224002 60 34 2.6 11.3 0.02 2.88 2.86 96 1012.1
20260501223501 60 69 4.3 11.3 0.03 2.88 2.86 96 1012.1
20260501223106 60 74 2.6 11.3 0.04 2.88 2.86 97 1012.3
20260501222600 60 340 4.3 10.4 0.06 2.88 2.86 96 1011.9
20260501222101 61 15 6.1 10.4 0.08 2.88 2.86 96 1011.8
20260501221600 61 10 2.6 9.6 0.09 2.88 2.86 97 1011.9
20260501221058 61 41 3.5 10.4 0.11 2.88 2.86 96 1012.2
20260501220557 61 35 4.3 12.2 0.12 2.88 2.86 96 1012.3
20260501215556 61 74 4.3 11.3 0.13 2.87 2.85 97 1012.6
20260501215057 61 28 3.5 9.6 0.14 2.87 2.85 97 1012.4
20260501214556 61 24 3.5 9.6 0.15 2.87 2.85 97 1012.4
20260501214055 61 27 4.3 8.7 0.16 2.86 2.84 97 1012.6
20260501213555 61 76 3.5 7.8 0.16 2.85 2.83 97 1012.8
20260501213056 61 360 2.6 9.6 0.18 2.84 2.82 96 1013.0
20260501212554 61 31 2.6 5.2 0.25 2.82 2.80 97 1012.9
20260501212054 61 31 0.9 7.8 0.27 2.80 2.78 97 1012.7
20260501211603 61 136 1.7 7.0 0.32 2.78 2.76 97 1012.7
20260501211055 61 26 0.9 7.8 0.39 2.77 2.75 97 1012.1
20260501210555 61 5 1.7 8.7 0.42 2.76 2.74 97 1011.8
20260501210058 61 40 1.7 8.7 0.42 2.75 2.73 97 1011.6
20260501205553 61 52 3.5 10.4 0.41 2.74 2.72 97 1011.2
20260501205052 61 30 5.2 10.4 0.40 2.73 2.71 97 1010.9
20260501204552 61 19 3.5 10.4 0.38 2.71 2.69 97 1010.9
20260501204051 61 355 2.6 10.4 0.37 2.70 2.68 97 1011.8
20260501203551 61 48 4.3 10.4 0.36 2.69 2.67 96 1011.5
20260501203051 61 91 2.6 10.4 0.33 2.65 2.63 96 1012.0
20260501202549 61 56 1.7 10.4 0.25 2.57 2.54 97 1011.9
20260501202050 61 67 2.6 10.4 0.25 2.52 2.50 97 1012.0
20260501201548 61 347 1.7 10.4 0.20 2.44 2.42 97 1012.1
20260501201050 62 53 4.3 9.6 0.16 2.37 2.35 97 1011.9
20260501200548 62 355 2.6 7.8 0.13 2.34 2.31 97 1011.5
20260501200046 62 59 1.7 7.8 0.13 2.33 2.31 97 1010.6
20260501195549 62 35 1.7 8.7 0.13 2.33 2.31 97 1010.9
20260501195046 62 87 1.7 8.7 0.13 2.33 2.31 97 1010.7
20260501194545 62 20 0.9 8.7 0.13 2.33 2.31 97 1010.8
20260501194044 62 34 2.6 7.8 0.16 2.33 2.31 97 1010.4
20260501193547 62 60 2.6 8.7 0.28 2.33 2.31 97 1010.6
20260501193051 62 108 3.5 8.7 0.37 2.31 2.29 97 1010.8
20260501192544 62 60 1.7 8.7 0.38 2.31 2.29 97 1010.7
20260501192044 62 31 2.6 8.7 0.35 2.27 2.25 97 1011.0
20260501191544 62 5 3.5 7.8 0.31 2.23 2.21 97 1010.9
20260501191044 62 47 1.7 7.8 0.31 2.21 2.19 97 1011.2
20260501190546 62 12 1.7 7.8 0.43 2.21 2.19 97 1011.8
20260501190058 62 339 2.6 7.8 0.51 2.20 2.18 97 1011.0
20260501185543 62 42 2.6 7.8 0.54 2.20 2.18 97 1010.8
20260501185043 62 101 1.7 6.1 0.55 2.20 2.18 97 1011.2
20260501184547 62 63 0.9 9.6 0.56 2.20 2.18 96 1011.4
20260501184044 62 117 3.5 9.6 0.57 2.16 2.14 96 1010.6
20260501183542 62 113 2.6 3.5 0.62 2.02 2.00 96 1010.4
20260501183044 62 87 0.0 3.5 0.60 1.94 1.92 96 1012.1